Location: Alafon
(8.4500°N, 4.2333°E)
Time: 16:20:50
(UTC+00:00)

A-11 Canister half - Pass Details

Date: 09 August 2021
Orbit: 1515 x 1685 km, 47.2° (Epoch: 19 September)

Event Time Altitude Azimuth Distance (km) Brightness Sun altitude
Rises 20:08:50 0° 343° (NNW) 4,899 12.2 -30.5°
Reaches altitude 10° 20:13:57 10° 4° (N) 3,930 11.3 -31.7°
Maximum altitude 20:19:28 16° 38° (NE) 3,499 10.7 -32.9°
Enters shadow 20:20:22 16° 44° (NE) 3,513 10.7 -33.1°
Drops below altitude 10° 20:24:57 10° 72° (ENE) 3,941 - -34.2°
Sets 20:30:01 0° 92° (E) 4,920 - -35.3°
